Flag for Czech Republic Weather past 2 weeks in Liberec, Czech Republic

Now
80 °F

Pleasantly warm.


Feels Like: 80 °F
Forecast: 59 / 74 °F
Wind: 2 mph from Northeast

Location: Liberec

Current Time: Jul 22, 2014 at 8:57:38 PM

Latest Report: Jul 22, 2014 at 6:00 PM


Visibility: 13 mi

Pressure: 29.89 "Hg

Humidity: 40%

Dew point: 54 °F

Location of LiberecLocation

Historic Weather in Liberec — Graph

°F

Liberec temperature yesterday

Maximum temperature yesterday: 80 °F (at 10:00 AM)
Minimum temperature yesterday: 68 °F (at 12:00 AM)
Average temperature yesterday: 74 °F

Past Weeks' High & Low Weather Summary

 TemperatureHumidityPressure
High89 °F (Jul 20, 5:00 PM)100% (Jul 11, 2:00 AM)30.19 "Hg (Jul 11, 2:00 AM)
Low46 °F (Jul 13, 5:00 AM)30% (Jul 19, 4:00 PM)29.59 "Hg (Jul 9, 2:00 AM)
Average67 °F74%29.91 "Hg
* Reported Jul 7 8:00 PM — Jul 22 6:00 PM, Liberec, Weather by CustomWeather, © 2014

Note: Actual official high and low records may vary slightly from our data, if they occured in-between our weather recording intervals... More about our weather records

Advertising

Liberec weather history for previous 24 hours

 ConditionsComfort  
Time TempWeatherWind HumidityBarometerVisibility
6:00 PM
Jul 22
80 °FPleasantly warm.2 mph40%29.89 "Hg12 mi
5:00 PM80 °FScattered clouds.3 mph39%29.88 "Hg25 mi
4:00 PM81 °FScattered clouds.2 mph39%29.89 "Hg25 mi
3:00 PM80 °FPartly sunny.2 mph37%29.90 "Hg25 mi
2:00 PM79 °FPartly sunny.3 mph40%29.90 "Hg25 mi
1:00 PM76 °FPartly sunny.5 mph44%29.91 "Hg25 mi
12:00 PM78 °FPartly sunny.3 mph43%29.90 "Hg25 mi
11:00 AM77 °FScattered clouds.5 mph40%29.89 "Hg22 mi
10:00 AM75 °FScattered clouds.6 mph42%29.89 "Hg19 mi
9:00 AM74 °FPartly sunny.2 mph62%29.88 "Hg19 mi
8:00 AM70 °FPartly sunny.3 mph72%29.88 "Hg19 mi
7:00 AM67 °FMild.3 mph82%29.87 "Hg12 mi
6:00 AM65 °FMild.3 mph89%29.85 "Hg12 mi
5:00 AM65 °FMild.1 mph85%29.84 "Hg12 mi
3:00 AM67 °FMild.1 mph89%29.83 "Hg11 mi
2:00 AM69 °FMild.2 mph76%29.82 "Hg12 mi
1:00 AM69 °FRain showers. Overcast.2 mph80%29.83 "Hg12 mi
12:00 AM68 °FMild.1 mph85%29.83 "Hg12 mi
11:00 PM
Jul 21
68 °FMild.2 mph81%29.82 "Hg12 mi
10:00 PM68 °FThunderstorms. Overcast.1 mph75%29.83 "Hg12 mi
9:00 PM70 °FSprinkles. Overcast.2 mph64%29.80 "Hg11 mi
8:00 PM74 °FOvercast.1 mph73%29.79 "Hg14 mi
Weather by CustomWeather, © 2014

See weather overviewHow to use our weather pages